RH
42 36 31 26 26 39 63 60 57 39 44 62 42 45 54 82 94 92 84 56 43 55 41 41 89 100 89
47 35 35 27 35 47 50 46 42 47 42 42 42 62 61 99 92 54 68 60 56 48 67 95 100 78 99
49 60 46 42 37 36 42 36 32 39 61 45 46 76 97 65 60 65 76 81 94 86 97 100 100 98 91
81 96 81 90 76 64 61 54 44 40 45 41 68 85 65 61 63 79 86 84 100 100 98 100 98 92 92
100 100 90 98 100 79 75 51 48 48 48 72 86 64 65 77 76 62 79 91 91 96 100 100 83 85 84
100 100 90 98 77 73 56 60 53 49 99 82 72 74 83 63 70 83 100 100 100 100 100 96 79 78 68
90 100 99 100 100 91 86 76 86 81 71 100 91 84 80 92 82 91 86 90 82 95 98 76 66 66 60
100 99 100 100 100 100 98 100 92 67 78 91 99 97 94 88 77 93 78 68 84 74 61 72 60 54 56
100 100 89 96 94 99 100 99 78 72 95 98 93 98 96 85 84 77 57 62 79 66 55 69 59 56 55
100 100 100 100 100 100 97 96 100 100 100 88 94 84 98 99 75 74 72 72 59 57 70 69 62 53 59
100 100 100 100 100 100 100 100 100 99 78 88 100 97 80 69 79 86 70 56 80 86 66 75 75 65 64
100 100 100 100 100 100 100 97 96 100 100 76 86 74 61 70 84 84 68 53 48 61 57 56 60 60 60
100 100 100 100 95 99 100 92 75 77 79 73 55 67 68 88 95 70 51 54 58 56 58 60 59 56 51
100 97 86 100 97 96 87 86 73 52 92 80 100 81 86 79 71 68 56 53 52 55 64 65 55 52 45
100 96 93 86 83 81 85 100 99 95 89 84 82 72 80 66 65 58 48 58 56 55 58 64 52 48 47
100 100 100 97 98 100 90 91 84 91 97 81 84 68 73 67 60 63 52 52 50 52 54 47 58 57 42
100 99 100 100 95 99 90 95 98 83 75 80 70 72 63 72 55 50 58 51 48 46 43 37 40 48 37
Wind_Speed
68 65 65 67 70 66 63 67 65 68 71 71 77 77 77 82 86 86 92 83 90 89 78 88 80 88 92
70 73 70 73 75 68 70 73 73 73 75 79 78 78 80 85 86 86 87 92 86 92 82 87 89 94 98
74 71 73 72 72 74 75 75 80 77 78 84 81 83 83 89 90 92 91 83 85 81 90 94 96 99 107
72 70 70 72 73 76 78 73 78 80 84 84 83 84 87 92 89 89 90 84 92 100 97 102 107 107 110
75 73 75 75 77 79 79 81 83 84 87 86 85 91 88 93 93 99 90 98 99 99 102 108 110 114 115
82 82 84 85 87 85 88 85 83 88 85 93 88 92 93 101 102 96 99 103 105 111 108 111 113 109 109
88 85 87 86 84 85 86 88 86 89 91 90 92 95 97 100 102 101 109 112 106 106 112 112 114 109 114
85 91 91 91 91 91 89 89 91 96 94 92 93 96 99 105 107 110 114 116 117 112 111 112 112 108 101
92 89 93 97 99 94 92 92 98 101 98 95 98 99 102 108 111 117 121 124 117 118 115 114 109 98 98
98 99 97 94 95 97 100 99 101 97 100 101 103 104 102 106 117 118 112 118 126 117 108 103 99 97 92
100 98 96 92 93 95 96 98 102 104 107 106 103 110 115 114 111 107 116 132 106 98 99 98 97 94 94
96 100 97 97 97 98 100 105 107 107 109 114 113 118 120 112 109 112 124 116 96 89 95 101 102 102 105
106 110 108 107 109 108 109 114 118 121 118 118 119 114 116 113 109 122 115 105 107 100 98 102 106 107 105
112 117 115 113 113 114 113 117 124 122 110 110 111 116 119 120 120 113 113 109 103 100 102 107 112 110 107
116 113 113 118 114 114 106 103 109 111 116 116 119 125 127 129 128 123 109 107 108 104 103 105 111 111 109
108 109 105 108 108 107 114 113 117 116 118 125 130 126 117 120 114 102 107 105 104 101 102 102 105 109 110
103 108 105 108 112 112 116 119 123 127 127 133 129 118 121 112 114 108 107 100 96 101 99 101 100 107 107
Wind_Direction
275 276 281 284 288 288 283 289 289 294 298 298 302 298 300 304 300 304 305 309 309 310 312 315 313 312 311
276 281 282 284 283 284 286 290 293 296 297 302 300 300 299 301 303 304 303 310 311 311 308 314 311 310 311
273 275 279 277 281 284 286 292 292 296 295 299 299 299 296 301 303 305 304 307 307 306 311 313 312 312 315
275 274 272 276 281 285 285 287 289 293 297 297 297 298 299 299 304 308 305 308 308 309 307 308 314 312 312
273 274 277 279 280 285 284 287 290 294 295 295 296 298 298 300 302 307 308 309 310 309 308 311 312 315 313
273 275 277 281 282 284 286 290 289 294 290 290 296 295 298 302 304 308 307 310 308 309 309 311 312 314 312
273 273 277 279 280 284 287 287 289 289 292 289 293 297 299 303 306 304 310 311 311 309 310 311 314 312 313
273 274 276 278 283 284 285 285 286 289 290 291 291 295 299 303 304 307 309 312 313 311 312 312 313 314 313
273 273 276 280 282 282 281 284 285 287 290 289 294 295 298 302 303 306 309 311 310 312 311 313 313 313 314
269 275 278 275 278 279 283 285 285 286 287 290 291 294 298 299 306 309 312 311 312 310 312 311 312 314 315
270 270 273 274 276 278 280 281 282 284 289 292 293 294 299 305 308 307 307 313 312 312 315 313 315 315 317
264 268 269 272 274 278 278 281 285 287 287 291 295 297 301 303 307 305 312 310 315 316 315 314 315 316 317
266 266 272 271 274 277 277 281 287 287 290 292 295 298 300 302 304 307 311 311 310 312 314 313 313 314 315
264 268 271 272 275 279 281 281 284 289 290 296 293 298 297 301 306 309 307 304 308 311 312 312 311 311 313
266 268 270 275 279 282 285 284 283 285 289 295 293 299 298 303 302 306 306 307 308 310 311 312 311 313 314
271 273 274 274 277 277 278 281 285 293 290 294 296 302 305 304 306 305 306 306 309 310 310 312 313 313 315
271 272 273 273 276 278 277 283 288 291 291 293 298 301 304 302 304 305 306 307 309 310 311 312 313 314 317